Change the Weather History Date:

Friday, July 25, 2014

  Actual Average Record
Temperature  
Mean Temperature 65 °F 75 °F  
Max Temperature 74 °F 85 °F 105 °F (1934)
Min Temperature 56 °F 66 °F 51 °F (1911)
Degree Days  
Heating Degree Days 0 0  
Month to date heating degree days 3 0  
Since 1 June heating degree days 5 16  
Since 1 July heating degree days 3 0  
Cooling Degree Days 0 10  
Month to date cooling degree days 143 265  
Year to date cooling degree days 485 575  
Since 1 June cooling degree days 381 491  
Growing Degree Days 14 (Base 50)    
Moisture  
Dew Point 55 °F    
Average Humidity 68    
Maximum Humidity 86    
Minimum Humidity 49    
Precipitation  
Precipitation T in 0.13 in 2.61 in (1898)
Month to date precipitation 2.55 3.80  
Year to date precipitation 27.02 25.45  
Snow  
Snow 0.00 in 0.00 in 0.00 in ()
Month to date snowfall 0.0 0.0  
Since 1 June snowfall 0.0 0.0  
Since 1 July snowfall 0.0 0.0  
Snow Depth 0.00 in    
Sea Level Pressure  
Sea Level Pressure 30.03 in    
Wind  
Wind Speed 5 mph (SSW)    
Max Wind Speed 14 mph    
Max Gust Speed 18 mph    
Visibility 10 miles    
Events Rain    
T = Trace of Precipitation, MM = Missing Value Source: NWS Daily Summary

Daily Weather History Graph

Daily Weather History Graph

Search for Another Location

Airport or City:

Trip Planner

Search our weather history database for the weather conditions in past years. The results will help you decide how hot, cold, wet, or windy it might be!

Date:

Astronomy

Jul. 25, 2014 Rise Set
Actual Time 6:38 AM EDT 9:04 PM EDT
Civil Twilight 6:07 AM EDT 9:35 PM EDT
Nautical Twilight 5:29 AM EDT 10:13 PM EDT
Astronomical Twilight 4:46 AM EDT 10:55 PM EDT
Moon 5:36 AM EDT (7/25) 8:01 PM EDT (7/25)
Length of Visible Light 15h 28m
Length of Day
14h 26m
Waning Crescent, 1% of the Moon is Illuminated
Jul 25
Waning Crescent
Jul 26
New
Aug 3
First Quarter
Aug 10
Full
Aug 17
Last Quarter

Hourly Weather History & Observations

Time (EDT) Temp. Dew Point Humidity Pressure Visibility Wind Dir Wind Speed Gust Speed Precip Events Conditions
12:54 AM 64.9 °F 53.1 °F 65% 30.04 in 10.0 mi Calm Calm - N/A   Partly Cloudy
1:54 AM 62.1 °F 54.0 °F 75% 30.05 in 10.0 mi Calm Calm - N/A   Clear
2:54 AM 59.0 °F 53.1 °F 81% 30.05 in 10.0 mi Calm Calm - N/A   Clear
3:54 AM 60.1 °F 54.0 °F 80% 30.05 in 10.0 mi Calm Calm - N/A   Clear
4:54 AM 59.0 °F 52.0 °F 78% 30.06 in 10.0 mi Calm Calm - N/A   Clear
5:54 AM 57.9 °F 53.1 °F 84% 30.08 in 10.0 mi Calm Calm - N/A   Clear
6:54 AM 57.0 °F 52.0 °F 83% 30.10 in 10.0 mi Calm Calm - N/A   Partly Cloudy
7:54 AM 60.1 °F 55.9 °F 86% 30.07 in 10.0 mi ESE 4.6 mph - N/A   Mostly Cloudy
8:54 AM 63.0 °F 55.0 °F 75% 30.08 in 10.0 mi SSW 4.6 mph - N/A   Mostly Cloudy
9:54 AM 64.9 °F 54.0 °F 68% 30.11 in 10.0 mi SSW 5.8 mph - N/A   Mostly Cloudy
10:54 AM 69.1 °F 55.0 °F 61% 30.09 in 10.0 mi SSW 5.8 mph - N/A   Scattered Clouds
11:54 AM 72.0 °F 52.0 °F 49% 30.09 in 10.0 mi SSW 4.6 mph - N/A   Scattered Clouds
12:54 PM 71.1 °F 53.1 °F 53% 30.07 in 10.0 mi SW 6.9 mph - N/A   Mostly Cloudy
1:54 PM 73.9 °F 55.0 °F 52% 30.05 in 10.0 mi South 6.9 mph - N/A   Mostly Cloudy
2:54 PM 71.1 °F 54.0 °F 55% 30.06 in 10.0 mi SSW 6.9 mph - 0.00 in Rain Light Rain
3:54 PM 72.0 °F 55.9 °F 57% 30.02 in 10.0 mi SW 11.5 mph - 0.00 in   Overcast
4:54 PM 71.1 °F 55.9 °F 59% 29.98 in 10.0 mi South 8.1 mph - 0.00 in   Overcast
5:54 PM 71.1 °F 57.9 °F 63% 29.96 in 10.0 mi South 10.4 mph - N/A   Mostly Cloudy
6:54 PM 73.0 °F 57.9 °F 59% 29.95 in 10.0 mi South 10.4 mph - N/A   Mostly Cloudy
7:54 PM 72.0 °F 57.9 °F 61% 29.96 in 10.0 mi South 5.8 mph - N/A   Mostly Cloudy
8:54 PM 70.0 °F 57.9 °F 65% 29.96 in 10.0 mi South 4.6 mph - N/A   Mostly Cloudy
9:54 PM 70.0 °F 59.0 °F 68% 29.98 in 10.0 mi SSW 4.6 mph - N/A   Overcast
10:54 PM 70.0 °F 59.0 °F 68% 29.99 in 10.0 mi SSW 5.8 mph - N/A   Overcast
11:54 PM 69.1 °F 60.1 °F 73% 29.98 in 10.0 mi SSW 5.8 mph - N/A   Overcast